Location: Shepherdstown, WV
(39.4326°N, 77.8042°W)
Time: 05:25:46
(UTC-04:00)

Vanguard 3 - Pass Details

Date: 06 August 2021
Orbit: 510 x 3260 km, 33.3° (Epoch: 21 September)

Event Time Altitude Azimuth Distance (km) Brightness Sun altitude
Rises 14:11:07 0° 173° (S) 3,925 10.9 64.2°
Reaches altitude 10° 14:17:23 10° 134° (SE) 3,705 10.7 63.6°
Maximum altitude 14:18:45 10° 125° (SE) 3,833 10.7 63.4°
Drops below altitude 10° 14:20:12 10° 117° (ESE) 4,026 10.8 63.2°
Sets 14:29:29 0° 84° (E) 5,974 11.4 62.1°
